Terminal Aerodrome Forecast
Issued by NWS

Home | Current Version | Previous Version | Text Only | Print | Product List | Glossary On
Versions: 1 2 3 4 5 6 7 8 9 10 11 12 13 14 15 16 17 18
000
FTUS41 KBGM 191500 AAB
TAFITH
TAF AMD
KITH 191517Z 1915/2012 34007KT P6SM SCT200
      TEMPO 1915/1917 BKN015
     FM191700 33012G20KT P6SM BKN035
     FM191800 33014G22KT P6SM SCT045
     FM192000 33015G27KT P6SM SKC
     FM200000 02004KT P6SM SKC=

USA.gov is the U.S. government's official web portal to all federal, state and local government web resources and services.